STARLINK-35262 (65847 NORAD) Tracking and Keplerian Element Data

This shows tracking and keplerian element data for the satellite.

Feedback or suggestion? Click here.




ElementValue
Catalog65847
NameSTARLINK-35262
Epoch Orbit1379
Epoch Day353.46161052
Epoch Year2025
RAAN101.4511
Inclination53.1599
Eccentricity0.0001613
Argument of Perigee94.6698
Mean Anonmoly265.4487
Mean Motion15.30198552
Decay Rate0.00019693
L11 65847U 25221AA 25353.46161052 .00019693 00000+0 67528-3 0 9993
L22 65847 53.1599 101.4511 0001613 94.6698 265.4487 15.30198552 13795



Live tracking and technical data element details for STARLINK-35262 (NORAD 65847). STARLINK-35262 can be tracked NOW for your location showing map with azimuth and elevation plus other details from your city location.







IsCatalogInMostPopularTable: catalog: 65847, numindb: 4
Update: records affected: 1



GetName: 65847 STARLINK-35262

Hit Count: updated at: Sat, 11 Apr 2026 21:11:48 GMT